Location: downtown San Diego
(32.7310°N, 117.1990°W)
Time: 23:35:18
(UTC-07:00)

Terra - Pass Details

Date: 12 July 2018
Orbit: 702 x 703 km, 98.2° (Epoch: 15 July)

Event Time Altitude Azimuth Distance (km) Brightness Sun altitude
Exits shadow 23:51:30 20° 290° (WNW) 1,579 3.9 -33.4°
Drops below altitude 10° 23:53:51 10° 317° (NW) 2,170 5.0 -33.6°
Sets 23:56:31 0° 332° (NNW) 3,092 6.2 -33.7°
